AEN3LC EDDM-EDDH

Flight info

Callsign AEN3LC
Flight time 0h 57m
Altitude 36000
Route INPUD3Q/08L INPUD Y102 UPALA M726 NARUS DCT ABGUS DCT DIRBO T902 RARUP RARUP3P
Aircraft A320/M-SDE3FGHIRWY/LB1

Departure

Time 2026-05-04 18:10
Airport Munich Airport (EDDM)

Arrival

Time 2026-05-04 19:08
Airport Hamburg Helmut Schmidt Airport (EDDH)
Time Latitude Longitude Altitude Speed Heading
2026-05-04 17:21 48.35587 11.79991 1486 ft 0 kts 263°
2026-05-04 17:50 48.35589 11.80009 1468 ft 4 kts 263°
2026-05-04 17:51 48.35591 11.80049 1476 ft 4 kts 263°
2026-05-04 17:51 48.35594 11.80083 1474 ft 3 kts 264°
2026-05-04 17:51 48.35592 11.80120 1473 ft 4 kts 305°
2026-05-04 17:51 48.35572 11.80141 1473 ft 4 kts 352°
2026-05-04 17:52 48.35551 11.80145 1473 ft 1 kts 353°
2026-05-04 17:54 48.35553 11.80144 1485 ft 3 kts 353°
2026-05-04 17:55 48.35605 11.80135 1479 ft 9 kts 353°
2026-05-04 17:55 48.35663 11.80107 1479 ft 11 kts 332°
2026-05-04 17:55 48.35767 11.80068 1480 ft 18 kts 353°
2026-05-04 17:55 48.35849 11.79961 1482 ft 18 kts 269°
2026-05-04 17:56 48.35834 11.79766 1475 ft 13 kts 264°
2026-05-04 17:56 48.35828 11.79689 1485 ft 7 kts 263°
2026-05-04 17:56 48.35825 11.79652 1485 ft 0 kts 263°
2026-05-04 17:58 48.35823 11.79625 1485 ft 8 kts 263°
2026-05-04 17:59 48.35819 11.79571 1485 ft 7 kts 266°
2026-05-04 17:59 48.35847 11.79526 1482 ft 5 kts 336°
2026-05-04 17:59 48.35850 11.79525 1485 ft 0 kts 341°
2026-05-04 18:01 48.35867 11.79517 1477 ft 8 kts 345°
2026-05-04 18:02 48.36051 11.79487 1485 ft 16 kts 354°
2026-05-04 18:02 48.36160 11.79469 1478 ft 17 kts 354°
2026-05-04 18:02 48.36224 11.79597 1473 ft 18 kts 82°
2026-05-04 18:02 48.36239 11.79791 1473 ft 20 kts 83°
2026-05-04 18:03 48.36255 11.80003 1485 ft 22 kts 83°
2026-05-04 18:03 48.36272 11.80239 1485 ft 24 kts 84°
2026-05-04 18:03 48.36292 11.80493 1485 ft 25 kts 83°
2026-05-04 18:03 48.36314 11.80766 1482 ft 27 kts 83°
2026-05-04 18:04 48.36336 11.81054 1485 ft 29 kts 83°
2026-05-04 18:04 48.36359 11.81358 1481 ft 30 kts 83°
2026-05-04 18:04 48.36394 11.81938 1480 ft 19 kts 94°
2026-05-04 18:05 48.36478 11.81997 1480 ft 2 kts 354°
2026-05-04 18:06 48.36483 11.81996 1481 ft 4 kts 354°
2026-05-04 18:07 48.36519 11.81990 1474 ft 5 kts 354°
2026-05-04 18:07 48.36549 11.81985 1483 ft 4 kts 353°
2026-05-04 18:07 48.36560 11.81983 1485 ft 0 kts 353°
2026-05-04 18:09 48.36639 11.81954 1478 ft 11 kts 328°
2026-05-04 18:09 48.36666 11.81833 1478 ft 5 kts 264°
2026-05-04 18:10 48.36638 11.81471 1473 ft 74 kts 263°
2026-05-04 18:10 48.36553 11.80361 1486 ft 138 kts 264°
2026-05-04 18:10 48.36426 11.78690 1670 ft 171 kts 264°
2026-05-04 18:10 48.36315 11.76941 2521 ft 167 kts 265°
2026-05-04 18:11 48.36190 11.75141 3047 ft 183 kts 264°
2026-05-04 18:11 48.36040 11.73115 3410 ft 206 kts 264°
2026-05-04 18:11 48.35863 11.70836 3789 ft 232 kts 263°
2026-05-04 18:11 48.35719 11.68405 4536 ft 241 kts 273°
2026-05-04 18:12 48.36310 11.66058 5360 ft 248 kts 310°
2026-05-04 18:12 48.37783 11.64524 5873 ft 272 kts 340°
2026-05-04 18:12 48.39657 11.63859 6675 ft 281 kts 352°
2026-05-04 18:12 48.41624 11.63524 7569 ft 287 kts 354°
2026-05-04 18:13 48.43634 11.63233 8471 ft 293 kts 352°
2026-05-04 18:13 48.45679 11.62871 9368 ft 299 kts 350°
2026-05-04 18:13 48.49865 11.61867 11082 ft 309 kts 347°
2026-05-04 18:14 48.51996 11.61266 11925 ft 313 kts 346°
2026-05-04 18:14 48.54156 11.60632 12766 ft 318 kts 346°
2026-05-04 18:14 48.56396 11.60004 13190 ft 339 kts 348°
2026-05-04 18:15 48.61270 11.58812 14261 ft 363 kts 349°
2026-05-04 18:15 48.66280 11.57653 15712 ft 369 kts 349°
2026-05-04 18:15 48.68832 11.57055 16457 ft 372 kts 349°
2026-05-04 18:16 48.71401 11.56445 17202 ft 375 kts 348°
2026-05-04 18:16 48.73988 11.55822 17936 ft 378 kts 348°
2026-05-04 18:16 48.76604 11.55186 18599 ft 381 kts 348°
2026-05-04 18:17 48.81883 11.53904 19860 ft 387 kts 348°
2026-05-04 18:17 48.84562 11.53253 20494 ft 390 kts 348°
2026-05-04 18:17 48.89970 11.51946 21685 ft 396 kts 348°
2026-05-04 18:18 48.92710 11.51283 22268 ft 400 kts 348°
2026-05-04 18:18 48.95467 11.50611 22837 ft 403 kts 348°
2026-05-04 18:18 48.98248 11.49928 23406 ft 406 kts 348°
2026-05-04 18:18 49.01054 11.49238 23880 ft 410 kts 348°
2026-05-04 18:19 49.06686 11.47853 24783 ft 415 kts 348°
2026-05-04 18:19 49.09535 11.47155 24911 ft 415 kts 348°
2026-05-04 18:19 49.12388 11.46457 24946 ft 415 kts 348°
2026-05-04 18:20 49.15236 11.45759 24943 ft 414 kts 348°
2026-05-04 18:20 49.18084 11.45056 24946 ft 414 kts 348°
2026-05-04 18:20 49.20939 11.44350 25201 ft 417 kts 348°
2026-05-04 18:20 49.23815 11.43645 25701 ft 419 kts 348°
2026-05-04 18:21 49.26709 11.42937 26163 ft 422 kts 348°
2026-05-04 18:21 49.29620 11.42220 26620 ft 424 kts 348°
2026-05-04 18:21 49.32544 11.41498 27082 ft 427 kts 348°
2026-05-04 18:21 49.35484 11.40768 27527 ft 429 kts 348°
2026-05-04 18:22 49.38441 11.40034 27963 ft 432 kts 348°
2026-05-04 18:22 49.41429 11.39412 28397 ft 435 kts 351°
2026-05-04 18:22 49.44457 11.38950 28826 ft 438 kts 352°
2026-05-04 18:22 49.47501 11.38593 29254 ft 441 kts 353°
2026-05-04 18:23 49.50572 11.38272 29664 ft 443 kts 353°
2026-05-04 18:23 49.53665 11.37941 30056 ft 446 kts 353°
2026-05-04 18:23 49.56726 11.37583 30383 ft 448 kts 352°
2026-05-04 18:23 49.59837 11.37191 30702 ft 451 kts 352°
2026-05-04 18:24 49.62970 11.36772 31007 ft 453 kts 352°
2026-05-04 18:24 49.66124 11.36337 31312 ft 456 kts 352°
2026-05-04 18:24 49.69293 11.35898 31613 ft 458 kts 352°
2026-05-04 18:24 49.72475 11.35460 32000 ft 458 kts 352°
2026-05-04 18:25 49.75645 11.35029 32430 ft 457 kts 352°
2026-05-04 18:25 49.78815 11.34603 32854 ft 457 kts 352°
2026-05-04 18:25 49.81991 11.34179 33276 ft 456 kts 352°
2026-05-04 18:25 49.85150 11.33756 33708 ft 456 kts 352°
2026-05-04 18:26 49.88280 11.33334 33932 ft 456 kts 352°
2026-05-04 18:26 49.91408 11.32912 33967 ft 445 kts 352°
2026-05-04 18:26 49.97491 11.32089 33962 ft 436 kts 352°
2026-05-04 18:27 50.03530 11.31260 33967 ft 435 kts 352°
2026-05-04 18:27 50.09554 11.30439 33965 ft 434 kts 352°
2026-05-04 18:28 50.15571 11.29624 33968 ft 433 kts 352°
2026-05-04 18:28 50.21572 11.28802 33968 ft 432 kts 351°
2026-05-04 18:29 50.27569 11.27979 33976 ft 432 kts 351°
2026-05-04 18:29 50.33519 11.27162 33969 ft 432 kts 351°
2026-05-04 18:30 50.42494 11.25919 33974 ft 431 kts 351°
2026-05-04 18:31 50.48474 11.25091 33976 ft 431 kts 351°
2026-05-04 18:31 50.54455 11.24266 33974 ft 431 kts 351°
2026-05-04 18:32 50.60427 11.23443 33978 ft 431 kts 351°
2026-05-04 18:32 50.66402 11.22612 33975 ft 431 kts 351°
2026-05-04 18:33 50.72369 11.21766 33984 ft 431 kts 351°
2026-05-04 18:33 50.78306 11.20928 33981 ft 431 kts 351°
2026-05-04 18:34 50.84279 11.20086 33984 ft 431 kts 351°
2026-05-04 18:34 50.90250 11.19247 33986 ft 431 kts 351°
2026-05-04 18:35 50.96233 11.18406 33987 ft 431 kts 351°
2026-05-04 18:35 51.02206 11.17561 33989 ft 431 kts 350°
2026-05-04 18:36 51.08185 11.16705 33985 ft 431 kts 350°
2026-05-04 18:36 51.14179 11.15847 33984 ft 432 kts 350°
2026-05-04 18:37 51.20166 11.14996 33976 ft 432 kts 350°
2026-05-04 18:37 51.26117 11.14142 33972 ft 431 kts 350°
2026-05-04 18:38 51.32101 11.13283 33966 ft 431 kts 350°
2026-05-04 18:38 51.38078 11.12427 33967 ft 431 kts 350°
2026-05-04 18:39 51.44062 11.11580 33968 ft 431 kts 350°
2026-05-04 18:39 51.50042 11.10716 33967 ft 431 kts 350°
2026-05-04 18:40 51.56024 11.09842 33967 ft 431 kts 350°
2026-05-04 18:40 51.62027 11.08969 33962 ft 431 kts 350°
2026-05-04 18:41 51.67986 11.08094 33951 ft 431 kts 349°
2026-05-04 18:41 51.73970 11.07208 33951 ft 432 kts 349°
2026-05-04 18:42 51.79950 11.06331 33946 ft 432 kts 349°
2026-05-04 18:42 51.84928 11.05608 33950 ft 432 kts 349°
2026-05-04 18:43 51.90898 11.04599 33947 ft 431 kts 347°
2026-05-04 18:43 51.97803 11.03055 33949 ft 430 kts 346°
2026-05-04 18:44 52.02780 11.01915 33949 ft 430 kts 347°
2026-05-04 18:44 52.08723 11.00623 33953 ft 431 kts 347°
2026-05-04 18:45 52.14673 10.99362 33951 ft 431 kts 347°
2026-05-04 18:45 52.17654 10.98727 33699 ft 432 kts 347°
2026-05-04 18:45 52.20639 10.98091 33424 ft 432 kts 347°
2026-05-04 18:45 52.23608 10.97456 33151 ft 430 kts 347°
2026-05-04 18:46 52.26574 10.96818 32885 ft 428 kts 347°
2026-05-04 18:46 52.29519 10.96179 32614 ft 427 kts 347°
2026-05-04 18:46 52.32427 10.95548 32347 ft 425 kts 347°
2026-05-04 18:46 52.35354 10.94914 31968 ft 421 kts 347°
2026-05-04 18:47 52.38248 10.94288 31447 ft 418 kts 347°
2026-05-04 18:47 52.41126 10.93663 30921 ft 416 kts 347°
2026-05-04 18:47 52.43989 10.93039 30422 ft 413 kts 347°
2026-05-04 18:47 52.46830 10.92421 29889 ft 411 kts 347°
2026-05-04 18:48 52.49657 10.91805 29369 ft 407 kts 347°
2026-05-04 18:48 52.52448 10.91198 28888 ft 402 kts 347°
2026-05-04 18:48 52.55208 10.90596 28425 ft 398 kts 347°
2026-05-04 18:48 52.57939 10.90000 27960 ft 394 kts 347°
2026-05-04 18:49 52.60636 10.89411 27509 ft 390 kts 347°
2026-05-04 18:49 52.63314 10.88822 27059 ft 386 kts 347°
2026-05-04 18:49 52.65959 10.88236 26612 ft 382 kts 347°
2026-05-04 18:49 52.68588 10.87654 26165 ft 379 kts 347°
2026-05-04 18:50 52.71194 10.87077 25713 ft 377 kts 347°
2026-05-04 18:50 52.73796 10.86502 25251 ft 375 kts 347°
2026-05-04 18:50 52.76371 10.85932 24786 ft 373 kts 347°
2026-05-04 18:50 52.78914 10.85368 24316 ft 372 kts 347°
2026-05-04 18:51 52.81480 10.84800 23838 ft 371 kts 347°
2026-05-04 18:51 52.84044 10.84235 23324 ft 371 kts 347°
2026-05-04 18:51 52.86597 10.83697 22824 ft 369 kts 348°
2026-05-04 18:51 52.89138 10.83183 22345 ft 367 kts 348°
2026-05-04 18:52 52.91669 10.82679 21875 ft 365 kts 348°
2026-05-04 18:52 52.94180 10.82181 21415 ft 363 kts 348°
2026-05-04 18:52 52.96685 10.81682 20987 ft 361 kts 348°
2026-05-04 18:52 52.99114 10.80822 20528 ft 354 kts 338°
2026-05-04 18:53 53.01458 10.79605 20105 ft 352 kts 338°
2026-05-04 18:53 53.03789 10.78399 19681 ft 350 kts 338°
2026-05-04 18:53 53.06108 10.77193 19225 ft 349 kts 338°
2026-05-04 18:53 53.08423 10.75985 18772 ft 348 kts 339°
2026-05-04 18:54 53.10707 10.74790 18330 ft 348 kts 339°
2026-05-04 18:54 53.13014 10.73582 17827 ft 346 kts 339°
2026-05-04 18:54 53.15304 10.72384 17381 ft 344 kts 339°
2026-05-04 18:54 53.17581 10.71193 17018 ft 340 kts 339°
2026-05-04 18:55 53.19801 10.70030 16841 ft 330 kts 339°
2026-05-04 18:55 53.24125 10.67754 16188 ft 323 kts 339°
2026-05-04 18:55 53.26265 10.66622 15660 ft 325 kts 339°
2026-05-04 18:56 53.28463 10.65455 14944 ft 335 kts 339°
2026-05-04 18:56 53.30686 10.64280 14515 ft 334 kts 339°
2026-05-04 18:56 53.32901 10.63109 14097 ft 333 kts 339°
2026-05-04 18:56 53.35107 10.61943 13665 ft 332 kts 339°
2026-05-04 18:57 53.37316 10.60774 13028 ft 333 kts 339°
2026-05-04 18:57 53.39497 10.59619 12390 ft 324 kts 339°
2026-05-04 18:57 53.41604 10.58507 12007 ft 314 kts 339°
2026-05-04 18:57 53.43687 10.57405 11593 ft 313 kts 339°
2026-05-04 18:58 53.45749 10.56310 11316 ft 305 kts 339°
2026-05-04 18:58 53.47701 10.55275 10849 ft 295 kts 339°
2026-05-04 18:58 53.49643 10.54244 10378 ft 291 kts 339°
2026-05-04 18:58 53.51581 10.53210 9970 ft 292 kts 339°
2026-05-04 18:59 53.53514 10.52171 9612 ft 290 kts 339°
2026-05-04 18:59 53.55376 10.51171 9201 ft 289 kts 339°
2026-05-04 18:59 53.57284 10.50145 8780 ft 288 kts 339°
2026-05-04 18:59 53.59158 10.49138 8285 ft 278 kts 339°
2026-05-04 19:00 53.60988 10.48154 7857 ft 275 kts 338°
2026-05-04 19:00 53.62811 10.47169 7434 ft 275 kts 339°
2026-05-04 19:00 53.64639 10.46184 7037 ft 274 kts 339°
2026-05-04 19:00 53.66452 10.45208 6640 ft 272 kts 338°
2026-05-04 19:01 53.68140 10.43832 6227 ft 267 kts 326°
2026-05-04 19:01 53.69707 10.42218 5707 ft 263 kts 325°
2026-05-04 19:01 53.71259 10.40570 5041 ft 263 kts 324°
2026-05-04 19:01 53.72797 10.38913 4650 ft 261 kts 324°
2026-05-04 19:02 53.74317 10.37262 4240 ft 259 kts 324°
2026-05-04 19:02 53.75653 10.35294 3823 ft 253 kts 304°
2026-05-04 19:02 53.76445 10.32698 3563 ft 243 kts 286°
2026-05-04 19:02 53.76698 10.29963 3438 ft 230 kts 269°
2026-05-04 19:03 53.76476 10.27355 3312 ft 219 kts 253°
2026-05-04 19:03 53.75870 10.25088 3190 ft 211 kts 238°
2026-05-04 19:03 53.74987 10.23171 3094 ft 204 kts 232°
2026-05-04 19:03 53.74105 10.21366 3016 ft 194 kts 232°
2026-05-04 19:04 53.73271 10.19660 2992 ft 182 kts 232°
2026-05-04 19:04 53.72499 10.18082 2822 ft 165 kts 232°
2026-05-04 19:04 53.71817 10.16690 2612 ft 145 kts 232°
2026-05-04 19:04 53.71197 10.15423 2430 ft 136 kts 232°
2026-05-04 19:05 53.70600 10.14203 2250 ft 134 kts 232°
2026-05-04 19:05 53.70009 10.12997 2066 ft 133 kts 233°
2026-05-04 19:05 53.69415 10.11787 1891 ft 134 kts 232°
2026-05-04 19:05 53.68818 10.10570 1718 ft 135 kts 232°
2026-05-04 19:06 53.68221 10.09349 1526 ft 135 kts 232°
2026-05-04 19:06 53.67621 10.08127 1346 ft 135 kts 233°
2026-05-04 19:06 53.67023 10.06909 1148 ft 134 kts 232°
2026-05-04 19:06 53.66423 10.05700 981 ft 134 kts 232°
2026-05-04 19:07 53.65829 10.04488 775 ft 133 kts 232°
2026-05-04 19:07 53.65239 10.03289 586 ft 133 kts 232°
2026-05-04 19:07 53.64649 10.02091 421 ft 132 kts 233°
2026-05-04 19:07 53.64061 10.00901 242 ft 132 kts 233°
2026-05-04 19:08 53.63478 9.99717 63 ft 130 kts 232°
2026-05-04 19:08 53.62982 9.98707 45 ft 80 kts 230°
2026-05-04 19:08 53.62783 9.98359 43 ft 20 kts 182°
2026-05-04 19:08 53.62696 9.98431 46 ft 0 kts 141°
2026-05-04 19:09 53.62694 9.98433 46 ft 3 kts 141°
2026-05-04 19:09 53.62674 9.98473 47 ft 4 kts 114°
2026-05-04 19:09 53.62688 9.98548 45 ft 12 kts 56°
2026-05-04 19:10 53.62759 9.98692 47 ft 18 kts 50°
2026-05-04 19:10 53.62842 9.98859 47 ft 20 kts 50°
2026-05-04 19:10 53.62935 9.99051 47 ft 22 kts 53°
2026-05-04 19:10 53.63033 9.99246 47 ft 19 kts 52°
2026-05-04 19:11 53.63081 9.99361 47 ft 0 kts 55°
2026-05-04 19:11 53.63101 9.99409 47 ft 12 kts 55°
2026-05-04 19:12 53.63170 9.99567 46 ft 19 kts 50°
2026-05-04 19:12 53.63354 9.99914 48 ft 22 kts 50°
2026-05-04 19:12 53.63426 10.00085 48 ft 16 kts 81°
2026-05-04 19:13 53.63353 10.00162 48 ft 13 kts 173°
2026-05-04 19:13 53.63347 10.00163 48 ft 0 kts 175°
2026-05-04 19:14 53.63345 10.00164 48 ft 3 kts 174°
2026-05-04 19:14 53.63329 10.00188 48 ft 3 kts 117°
2026-05-04 19:14 53.63328 10.00278 46 ft 10 kts 85°
2026-05-04 19:15 53.63330 10.00339 48 ft 4 kts 87°
2026-05-04 19:15 53.63331 10.00360 48 ft 1 kts 86°
2026-05-04 19:15 53.63331 10.00364 48 ft 0 kts 86°